• In Hungary
  • List of Countries
  • For 7 days
  • Water Temperature
  • Satellite Maps
  • Weather Map
  • News
  • Weather Widgets
  • user-avatar
    Login

    Hourly Weather San Lorenzo

    Today, 15 December, Friday

    Time Temperature Precipitation Wind Pressure Humidity
    00:00 +28°C° 0 mm 1 mps 745 mmHg 68%
    01:00 +28°C° 0 mm 1 mps 744 mmHg 69%
    02:00 +27°C° 0 mm 1 mps 745 mmHg 71%
    03:00 +27°C° 0.1 mm 1 mps 745 mmHg 72%
    04:00 +27°C° 0.1 mm 1 mps 745 mmHg 73%
    05:00 +26°C° 0.1 mm 1 mps 745 mmHg 74%
    06:00 +29°C° 0 mm 1 mps 745 mmHg 68%
    07:00 +31°C° 0 mm 1 mps 745 mmHg 61%
    08:00 +34°C° 0 mm 2 mps 746 mmHg 55%
    09:00 +36°C° 0 mm 2 mps 745 mmHg 48%
    10:00 +37°C° 0 mm 1 mps 745 mmHg 41%
    11:00 +41°C° 0 mm 1 mps 745 mmHg 34%
    12:00 +40°C° 0 mm 1 mps 744 mmHg 35%
    13:00 +40°C° 0 mm 1 mps 743 mmHg 35%
    14:00 +39°C° 0 mm 1 mps 743 mmHg 35%
    15:00 +39°C° 0 mm 1 mps 742 mmHg 37%
    16:00 +39°C° 0 mm 2 mps 742 mmHg 38%
    17:00 +38°C° 0 mm 2 mps 741 mmHg 39%
    18:00 +36°C° 0 mm 2 mps 741 mmHg 44%
    19:00 +34°C° 0 mm 2 mps 741 mmHg 49%
    20:00 +31°C° 0 mm 2 mps 741 mmHg 53%
    21:00 +31°C° 0 mm 2 mps 742 mmHg 55%
    22:00 +30°C° 0 mm 2 mps 742 mmHg 56%
    23:00 +30°C° 0 mm 2 mps 742 mmHg 58%

    Tomorrow, 16 December, Saturday

    Time Temperature Precipitation Wind Pressure Humidity
    00:00 +29°C° 0 mm 2 mps 742 mmHg 59%
    01:00 +29°C° 0 mm 2 mps 742 mmHg 60%
    02:00 +28°C° 0 mm 2 mps 742 mmHg 62%
    03:00 +28°C° 0 mm 2 mps 742 mmHg 64%
    04:00 +28°C° 0 mm 2 mps 742 mmHg 66%
    05:00 +27°C° 0 mm 2 mps 743 mmHg 68%
    06:00 +29°C° 0 mm 2 mps 743 mmHg 63%
    07:00 +33°C° 0 mm 3 mps 743 mmHg 58%
    08:00 +35°C° 0 mm 3 mps 743 mmHg 53%
    09:00 +37°C° 0 mm 3 mps 743 mmHg 46%
    10:00 +39°C° 0 mm 3 mps 743 mmHg 40%
    11:00 +41°C° 0 mm 4 mps 742 mmHg 33%
    12:00 +42°C° 0 mm 3 mps 741 mmHg 31%
    13:00 +43°C° 0 mm 3 mps 740 mmHg 28%
    14:00 +44°C° 0 mm 3 mps 740 mmHg 26%
    15:00 +43°C° 0 mm 3 mps 739 mmHg 27%
    16:00 +43°C° 0 mm 3 mps 738 mmHg 28%
    17:00 +42°C° 0 mm 3 mps 738 mmHg 29%
    18:00 +39°C° 0 mm 3 mps 738 mmHg 34%
    19:00 +37°C° 0 mm 3 mps 738 mmHg 38%
    20:00 +35°C° 0 mm 3 mps 739 mmHg 42%
    21:00 +35°C° 0 mm 3 mps 739 mmHg 44%
    22:00 +35°C° 0 mm 4 mps 739 mmHg 46%
    23:00 +34°C° 0 mm 4 mps 740 mmHg 48%

    Day after tomorrow, 17 December, Sunday

    Time Temperature Precipitation Wind Pressure Humidity
    00:00 +34°C° 0 mm 4 mps 739 mmHg 49%
    01:00 +33°C° 0 mm 4 mps 739 mmHg 50%
    02:00 +33°C° 0 mm 4 mps 739 mmHg 52%
    03:00 +31°C° 0 mm 3 mps 740 mmHg 54%
    04:00 +31°C° 0 mm 3 mps 740 mmHg 55%
    05:00 +30°C° 0 mm 3 mps 741 mmHg 57%
    06:00 +33°C° 0 mm 3 mps 742 mmHg 55%
    07:00 +34°C° 0 mm 4 mps 743 mmHg 52%
    08:00 +36°C° 0 mm 4 mps 743 mmHg 50%
    09:00 +37°C° 0 mm 4 mps 744 mmHg 45%
    10:00 +40°C° 0 mm 4 mps 744 mmHg 39%
    11:00 +42°C° 0 mm 4 mps 744 mmHg 34%
    12:00 +43°C° 0 mm 3 mps 743 mmHg 31%
    13:00 +43°C° 0 mm 2 mps 743 mmHg 29%
    14:00 +43°C° 0 mm 1 mps 742 mmHg 26%
    15:00 +42°C° 0 mm 2 mps 742 mmHg 29%
    16:00 +41°C° 0 mm 2 mps 742 mmHg 32%
    17:00 +39°C° 0 mm 3 mps 742 mmHg 36%
    18:00 +37°C° 0.2 mm 4 mps 742 mmHg 45%
    19:00 +34°C° 0.2 mm 4 mps 743 mmHg 55%
    20:00 +30°C° 0.2 mm 5 mps 744 mmHg 65%
    21:00 +30°C° 0.3 mm 4 mps 745 mmHg 69%
    22:00 +29°C° 0.3 mm 3 mps 745 mmHg 73%
    23:00 +28°C° 0.3 mm 3 mps 746 mmHg 77%

    18 December, Monday

    Time Temperature Precipitation Wind Pressure Humidity
    00:00 +28°C° 0 mm 3 mps 745 mmHg 79%
    01:00 +27°C° 0 mm 3 mps 745 mmHg 80%
    02:00 +27°C° 0 mm 4 mps 745 mmHg 82%
    03:00 +27°C° 0.1 mm 3 mps 745 mmHg 83%
    04:00 +26°C° 0.1 mm 3 mps 745 mmHg 85%
    05:00 +26°C° 0.1 mm 3 mps 745 mmHg 86%
    06:00 +27°C° 1.5 mm 3 mps 746 mmHg 86%
    07:00 +27°C° 1.5 mm 3 mps 746 mmHg 85%
    08:00 +28°C° 1.5 mm 3 mps 747 mmHg 85%
    09:00 +31°C° 0.4 mm 2 mps 747 mmHg 75%
    10:00 +33°C° 0.4 mm 1 mps 747 mmHg 66%
    11:00 +36°C° 0.4 mm 1 mps 746 mmHg 56%
    12:00 +36°C° 1.1 mm 1 mps 746 mmHg 55%
    13:00 +36°C° 1.1 mm 1 mps 745 mmHg 54%
    14:00 +36°C° 1.1 mm 1 mps 745 mmHg 53%
    15:00 +36°C° 0 mm 1 mps 744 mmHg 53%
    16:00 +36°C° 0 mm 1 mps 744 mmHg 54%
    17:00 +35°C° 0 mm 1 mps 744 mmHg 54%
    18:00 +33°C° 0.8 mm 1 mps 744 mmHg 62%
    19:00 +31°C° 0.8 mm 1 mps 744 mmHg 70%
    20:00 +29°C° 0.8 mm 1 mps 744 mmHg 78%
    21:00 +29°C° 1.1 mm 1 mps 745 mmHg 81%
    22:00 +28°C° 1.1 mm 1 mps 745 mmHg 84%
    23:00 +26°C° 1.1 mm 0 mps 745 mmHg 88%

    19 December, Tuesday

    Time Temperature Precipitation Wind Pressure Humidity
    00:00 +28°C° 0 mm 1 mps 745 mmHg 88%
    01:00 +28°C° 0 mm 1 mps 745 mmHg 88%
    02:00 +27°C° 0 mm 1 mps 744 mmHg 88%
    03:00 +27°C° 0 mm 1 mps 744 mmHg 89%
    04:00 +27°C° 0 mm 1 mps 744 mmHg 90%
    05:00 +27°C° 0 mm 1 mps 745 mmHg 91%
    06:00 +28°C° 0 mm 2 mps 745 mmHg 83%
    07:00 +30°C° 0 mm 2 mps 745 mmHg 75%
    08:00 +33°C° 0 mm 3 mps 746 mmHg 66%
    09:00 +34°C° 0.4 mm 3 mps 746 mmHg 61%
    10:00 +35°C° 0.4 mm 3 mps 745 mmHg 56%
    11:00 +37°C° 0.4 mm 3 mps 745 mmHg 52%
    12:00 +37°C° 0.1 mm 2 mps 744 mmHg 51%
    13:00 +36°C° 0.1 mm 1 mps 744 mmHg 50%
    14:00 +36°C° 0.1 mm 1 mps 744 mmHg 49%
    15:00 +36°C° 0 mm 1 mps 743 mmHg 49%
    16:00 +36°C° 0 mm 1 mps 743 mmHg 50%
    17:00 +36°C° 0 mm 1 mps 743 mmHg 50%
    18:00 +34°C° 1.3 mm 2 mps 743 mmHg 60%
    19:00 +31°C° 1.3 mm 2 mps 743 mmHg 70%
    20:00 +29°C° 1.3 mm 2 mps 743 mmHg 81%
    21:00 +28°C° 2.5 mm 2 mps 743 mmHg 83%
    22:00 +28°C° 2.5 mm 3 mps 743 mmHg 86%
    23:00 +27°C° 2.5 mm 3 mps 744 mmHg 89%

    20 December, Wednesday

    Time Temperature Precipitation Wind Pressure Humidity
    00:00 +27°C° 3.1 mm 3 mps 743 mmHg 89%
    01:00 +27°C° 3.1 mm 3 mps 743 mmHg 89%
    02:00 +26°C° 3.1 mm 4 mps 743 mmHg 90%
    03:00 +26°C° 1.5 mm 3 mps 743 mmHg 90%
    04:00 +26°C° 1.5 mm 3 mps 743 mmHg 91%
    05:00 +25°C° 1.5 mm 3 mps 743 mmHg 91%
    06:00 +26°C° 1.8 mm 3 mps 744 mmHg 91%
    07:00 +26°C° 1.8 mm 3 mps 744 mmHg 91%
    08:00 +26°C° 1.8 mm 3 mps 745 mmHg 92%
    09:00 +28°C° 0.1 mm 3 mps 744 mmHg 86%
    10:00 +29°C° 0.1 mm 3 mps 743 mmHg 80%
    11:00 +31°C° 0.1 mm 2 mps 743 mmHg 74%
    12:00 +34°C° 0.1 mm 2 mps 742 mmHg 65%
    13:00 +36°C° 0.1 mm 2 mps 741 mmHg 56%
    14:00 +38°C° 0.1 mm 2 mps 741 mmHg 47%
    15:00 +37°C° 0.2 mm 2 mps 740 mmHg 50%
    16:00 +35°C° 0.2 mm 1 mps 740 mmHg 54%
    17:00 +35°C° 0.2 mm 1 mps 740 mmHg 57%
    18:00 +33°C° 0.1 mm 1 mps 740 mmHg 63%
    19:00 +31°C° 0.1 mm 1 mps 740 mmHg 68%
    20:00 +30°C° 0.1 mm 2 mps 740 mmHg 74%
    21:00 +29°C° 0.3 mm 2 mps 740 mmHg 76%
    22:00 +29°C° 0.3 mm 2 mps 740 mmHg 79%
    23:00 +28°C° 0.3 mm 2 mps 740 mmHg 81%
    Show more